User: anonymous   Login
Location: Kernascl�den
(48.0062°N, 3.3198°W)
Time: 20:54:15
(UTC+00:00)
Language:

Meteor 2-1 Rocket - Orbit

View from above orbital plane
View from above orbital plane
View from above satellite
View from above satellite

Ground track
Ground track

The orbit data is extracted from the following two-line orbital elements,

1 08027U 75064B   21110.54950925  .00000152  00000-0  82412-4 0  9992
2 08027  81.2942 143.9896 0056012 267.6496  91.8259 14.07356500349594
Epoch (UTC): 20 April 2021 13:11:17
Eccentricity: 0.0056012
inclination: 81.2942°
perigee height: 828 km
apogee height: 909 km
right ascension of ascending node: 143.9896°
argument of perigee: 267.6496°
revolutions per day: 14.07356500
mean anomaly at epoch: 91.8259°
orbit number at epoch: 34959

The dashed part of the orbit path shows where the satellite is in the earth's shadow,  

DLR